KF0ZH Weather Reports


Display with metric or nautical units.
time (UTC)temp
F
wind
direction
speed
MPH
gust
MPH
rain 1hr
in
rain 24hr
in
rain mn
in
humidity
%
barometer
mb
20260509132700 52 344 10.0 11.0 0.00 0.00 0.00 82 1004.6
20260509132203 51 350 5.0 9.0 0.00 0.00 0.00 83 1004.5
20260509131159 52 18 1.0 8.0 0.00 0.00 0.00 83 1004.4
20260509130701 52 305 7.0 13.0 0.00 0.00 0.00 83 1004.2
20260509130200 52 313 3.0 12.0 0.00 0.00 0.00 83 1004.2
20260509125659 52 340 5.0 18.0 0.00 0.00 0.00 83 1004.1
20260509125200 51 336 12.0 21.0 0.00 0.00 0.00 84 1004.0
20260509124700 52 358 9.0 13.0 0.00 0.00 0.00 85 1003.9
20260509124200 52 331 8.0 13.0 0.00 0.00 0.00 85 1003.8
20260509123659 52 2 10.0 13.0 0.00 0.00 0.00 86 1003.8
20260509123159 52 275 4.0 8.0 0.00 0.00 0.00 85 1003.6
20260509122200 52 345 7.0 11.0 0.00 0.00 0.00 85 1003.4
20260509121159 52 239 0.0 18.0 0.00 0.00 0.00 85 1003.1
20260509120159 53 319 5.0 16.0 0.00 0.00 0.00 86 1003.1
20260509115701 53 338 5.0 11.0 0.00 0.00 0.00 85 1002.9
20260509115306 53 1 12.0 12.0 0.00 0.00 0.00 84 1002.9
20260509115201 53 1 12.0 12.0 0.00 0.00 0.00 84 1002.9
20260509114700 52 293 8.0 8.0 0.00 0.00 0.00 83 1002.8
20260509114202 52 306 6.0 9.0 0.00 0.00 0.00 83 1002.7
20260509113159 52 288 0.0 3.0 0.00 0.00 0.00 82 1002.4
20260509112737 52 209 0.0 0.0 0.00 0.00 0.00 82 1002.5
20260509112701 52 209 0.0 0.0 0.00 0.00 0.00 82 1002.5
20260509112159 52 201 0.0 2.0 0.00 0.00 0.00 82 1002.4
20260509110659 52 234 0.0 0.0 0.00 0.00 0.00 82 1002.1
20260509110159 52 234 0.0 0.0 0.00 0.00 0.00 82 1002.0
20260509105702 52 203 3.0 4.0 0.00 0.00 0.00 83 1001.9
20260509105200 52 299 0.0 0.0 0.00 0.00 0.00 81 1001.9
20260509104659 52 299 0.0 0.0 0.00 0.00 0.00 80 1001.7
20260509104159 53 299 0.0 0.0 0.00 0.00 0.00 79 1001.7
20260509103659 53 299 0.0 0.0 0.00 0.00 0.00 77 1001.7
20260509102659 53 299 0.0 0.0 0.00 0.00 0.00 74 1002.0
20260509102207 53 299 0.0 0.0 0.00 0.00 0.00 73 1001.4
20260509101700 53 299 0.0 0.0 0.00 0.00 0.00 73 1001.2
20260509101200 53 299 0.0 0.0 0.00 0.00 0.00 72 1001.4
20260509100700 53 299 0.0 0.0 0.00 0.00 0.00 72 1001.6
20260509100201 53 299 0.0 0.0 0.00 0.00 0.00 70 1001.4
20260509095659 53 299 0.0 0.0 0.00 0.00 0.00 69 1001.7
20260509095200 53 299 0.0 0.0 0.00 0.00 0.00 69 1001.9
20260509094659 53 299 0.0 0.0 0.00 0.00 0.00 68 1002.0
20260509094159 53 299 0.0 0.0 0.00 0.00 0.00 67 1002.0
20260509093659 53 323 0.0 0.0 0.00 0.00 0.00 67 1002.1
20260509093200 53 323 0.0 0.0 0.00 0.00 0.00 67 1002.0
20260509092700 53 316 0.0 0.0 0.00 0.00 0.00 66 1001.9
20260509092201 54 326 0.0 6.0 0.00 0.00 0.00 66 1002.0
20260509091700 54 358 0.0 6.0 0.00 0.00 0.00 65 1001.8
20260509091200 53 312 7.0 8.0 0.00 0.00 0.00 65 1001.8
20260509090700 53 358 0.0 6.0 0.00 0.00 0.00 64 1001.8
20260509090200 53 326 0.0 3.0 0.00 0.00 0.00 63 1001.6
20260509085659 53 317 0.0 0.0 0.00 0.00 0.00 62 1001.5
20260509085200 53 340 0.0 0.0 0.00 0.00 0.00 62 1001.5
20260509084659 53 343 6.0 6.0 0.00 0.00 0.00 62 1001.5
20260509084159 53 296 0.0 5.0 0.00 0.00 0.00 62 1001.4
20260509083159 52 274 0.0 0.0 0.00 0.00 0.00 64 1001.4
20260509082201 51 258 0.0 0.0 0.00 0.00 0.00 66 1001.4
20260509081700 51 288 7.0 9.0 0.00 0.00 0.00 69 1001.2
20260509081200 51 341 4.0 8.0 0.00 0.00 0.00 69 1000.6
20260509080700 51 298 0.0 0.0 0.00 0.00 0.00 70 1000.5
20260509080159 51 298 0.0 0.0 0.00 0.00 0.00 68 1000.2
20260509075701 51 298 0.0 0.0 0.00 0.00 0.00 65 1000.1
20260509075201 51 298 0.0 0.0 0.00 0.00 0.00 64 1000.2
20260509074700 51 298 0.0 0.0 0.00 0.00 0.00 64 1000.1
20260509074200 51 298 0.0 0.0 0.00 0.00 0.00 64 1000.0
20260509073659 51 298 0.0 0.0 0.00 0.00 0.00 64 999.9
20260509073200 51 298 0.0 0.0 0.00 0.00 0.00 63 1000.0
20260509072201 51 298 0.0 0.0 0.00 0.00 0.00 62 1000.1
20260509071659 51 298 0.0 0.0 0.00 0.00 0.00 62 1000.3
20260509071159 51 298 0.0 0.0 0.00 0.00 0.00 61 1000.3
20260509070659 52 298 0.0 0.0 0.00 0.00 0.00 61 1000.5
20260509070159 52 298 0.0 0.0 0.00 0.00 0.00 61 1000.5
20260509065659 52 298 0.0 0.0 0.00 0.00 0.00 60 1000.4
20260509065159 52 298 0.0 0.0 0.00 0.00 0.00 59 1000.4
20260509064159 52 298 0.0 0.0 0.00 0.00 0.00 59 1000.4
20260509063659 52 298 0.0 0.0 0.00 0.00 0.00 60 1000.5
20260509062702 52 298 0.0 0.0 0.00 0.00 0.00 60 1000.9
20260509062159 52 298 0.0 0.0 0.00 0.00 0.00 59 1000.9
20260509061159 52 298 0.0 0.0 0.00 0.00 0.00 59 1000.5
20260509060659 53 298 0.0 0.0 0.00 0.00 0.00 58 1000.8
20260509060159 53 298 0.0 0.0 0.00 0.00 0.00 57 1000.8
20260509055201 53 298 0.0 0.0 0.00 0.00 0.00 55 1000.8
20260509054200 53 298 0.0 0.0 0.00 0.00 0.00 56 1001.0
20260509053659 53 298 0.0 0.0 0.00 0.00 0.00 56 1001.3
20260509053159 53 298 0.0 0.0 0.00 0.00 0.00 56 1001.2
20260509052203 54 298 0.0 0.0 0.00 0.00 0.00 54 1001.3
20260509051159 54 298 0.0 0.0 0.00 0.00 0.00 53 1001.2
20260509050659 55 298 0.0 0.0 0.00 0.00 0.00 53 1001.3
20260509050159 55 298 0.0 0.0 0.00 0.00 0.00 53 1001.6
20260509045159 56 298 0.0 0.0 0.00 0.00 0.00 51 1001.6
20260509044200 56 298 0.0 0.0 0.00 0.00 0.00 50 1001.6
20260509043659 56 298 0.0 0.0 0.00 0.00 0.00 49 1001.7
20260509043159 57 298 0.0 0.0 0.00 0.00 0.00 49 1001.7
20260509042159 58 298 0.0 0.0 0.00 0.00 0.00 48 1001.8
20260509041159 59 298 0.0 0.0 0.00 0.00 0.00 46 1001.8
20260509040700 59 298 0.0 0.0 0.00 0.00 0.00 46 1001.8
20260509035701 60 298 0.0 0.0 0.00 0.00 0.00 45 1001.7
20260509035159 60 298 0.0 0.0 0.00 0.00 0.00 45 1001.8
20260509034159 60 330 0.0 3.0 0.00 0.00 0.00 44 1001.8
20260509032705 61 292 0.0 5.0 0.00 0.00 0.00 44 1001.7
20260509031200 62 345 5.0 9.0 0.00 0.00 0.00 43 1001.5
20260509030159 63 340 4.0 10.0 0.00 0.00 0.00 42 1001.4
20260509025702 63 315 5.0 9.0 0.00 0.00 0.00 42 1001.3
20260509025204 63 305 10.0 13.0 0.00 0.00 0.00 43 1001.3
20260509024659 64 292 0.0 9.0 0.00 0.00 0.00 43 1001.2
20260509024200 64 319 9.0 9.0 0.00 0.00 0.00 42 1001.2
20260509023200 64 322 0.0 11.0 0.00 0.00 0.00 42 1001.1
20260509022702 65 341 5.0 8.0 0.00 0.00 0.00 41 1000.9
20260509022200 65 289 6.0 9.0 0.00 0.00 0.00 41 1000.9
20260509021659 65 326 5.0 8.0 0.00 0.00 0.00 41 1000.6
20260509021159 65 267 0.0 9.0 0.00 0.00 0.00 41 1000.5
20260509020704 65 358 0.0 11.0 0.00 0.00 0.00 40 1000.4
20260509020159 66 299 6.0 15.0 0.00 0.00 0.00 39 1000.3
20260509015201 66 281 0.0 8.0 0.00 0.00 0.00 39 1000.0
20260509014702 66 260 0.0 12.0 0.00 0.00 0.00 38 1000.0
20260509014159 67 313 0.0 11.0 0.00 0.00 0.00 38 999.9
20260509013702 67 305 0.0 7.0 0.00 0.00 0.00 38 999.9
20260509013159 67 244 0.0 0.0 0.00 0.00 0.00 37 999.8
20260509012159 68 275 0.0 0.0 0.00 0.00 0.00 36 999.6
20260509011704 68 246 0.0 5.0 0.00 0.00 0.00 35 999.6
20260509011201 68 282 0.0 10.0 0.00 0.00 0.00 35 999.5
20260509010659 68 267 6.0 12.0 0.00 0.00 0.00 34 999.4
20260509010252 68 313 8.0 11.0 0.00 0.00 0.00 34 999.4
20260509010200 68 313 8.0 11.0 0.00 0.00 0.00 34 999.4
20260509005701 69 330 7.0 12.0 0.00 0.00 0.00 34 999.3
20260509005201 69 354 6.0 9.0 0.00 0.00 0.00 34 999.4
20260509004702 69 2 0.0 9.0 0.00 0.00 0.00 34 999.3
20260509004159 69 317 5.0 19.0 0.00 0.00 0.00 34 999.2
20260509002201 70 292 10.0 15.0 0.00 0.00 0.00 33 999.2
20260509001159 70 323 0.0 10.0 0.00 0.00 0.00 33 999.1
20260509000159 71 302 9.0 10.0 0.00 0.00 0.00 34 999.1
20260508235702 71 302 0.0 14.0 0.00 0.00 0.00 33 999.1
20260508235159 71 307 3.0 14.0 0.00 0.00 0.00 34 999.0
20260508234159 71 275 5.0 14.0 0.00 0.00 0.00 33 999.1
20260508233659 72 295 3.0 9.0 0.00 0.00 0.00 34 999.1
20260508233203 72 299 6.0 12.0 0.00 0.00 0.00 33 999.2
20260508231659 72 322 0.0 10.0 0.00 0.00 0.00 34 999.4
20260508231159 72 277 0.0 7.0 0.00 0.00 0.00 34 999.5
20260508230659 72 307 10.0 12.0 0.00 0.00 0.00 34 999.6
20260508230158 72 326 9.0 10.0 0.00 0.00 0.00 35 999.6
20260508225659 72 316 4.0 18.0 0.00 0.00 0.00 34 999.7
20260508225200 72 343 6.0 15.0 0.00 0.00 0.00 33 999.6
20260508224702 72 248 7.0 17.0 0.00 0.00 0.00 33 999.5
20260508224159 72 262 3.0 8.0 0.00 0.00 0.00 34 999.5
20260508223158 72 341 15.0 17.0 0.00 0.00 0.00 34 999.5
20260508222700 72 307 8.0 17.0 0.00 0.00 0.00 34 999.5
20260508222159 72 264 6.0 9.0 0.00 0.00 0.00 34 999.4
20260508221659 72 331 10.0 12.0 0.00 0.00 0.00 33 999.6
20260508221200 72 296 4.0 10.0 0.00 0.00 0.00 36 999.6
20260508220659 71 330 0.0 6.0 0.00 0.00 0.00 35 999.6
20260508220159 71 302 2.0 11.0 0.00 0.00 0.00 34 999.7
20260508215200 72 322 6.0 9.0 0.00 0.00 0.00 34 999.9
20260508214659 72 309 0.0 9.0 0.00 0.00 0.00 33 999.9
20260508214158 72 317 4.0 10.0 0.00 0.00 0.00 33 1000.1
20260508213200 71 248 0.0 1.0 0.00 0.00 0.00 34 1000.0
20260508212205 71 268 5.0 11.0 0.00 0.00 0.00 34 1000.2
20260508211659 70 348 0.0 5.0 0.00 0.00 0.00 35 1000.3
20260508211158 70 300 6.0 12.0 0.00 0.00 0.00 34 1000.3
20260508210659 70 14 0.0 0.0 0.00 0.00 0.00 34 1000.4
20260508210200 70 343 5.0 9.0 0.00 0.00 0.00 33 1000.5
20260508205702 71 327 5.0 5.0 0.00 0.00 0.00 33 1000.6
20260508205159 72 334 0.0 9.0 0.00 0.00 0.00 33 1000.8
20260508204658 72 286 0.0 5.0 0.00 0.00 0.00 34 1000.8
20260508204159 71 298 7.0 11.0 0.00 0.00 0.00 34 1000.9
20260508203659 70 237 0.0 0.0 0.00 0.00 0.00 34 1001.1
20260508203200 70 237 0.0 0.0 0.00 0.00 0.00 35 1001.2
20260508202200 69 333 5.0 10.0 0.00 0.00 0.00 34 1001.4
20260508201159 69 320 13.0 13.0 0.00 0.00 0.00 34 1001.6
20260508200659 70 282 6.0 12.0 0.00 0.00 0.00 33 1001.7
20260508200159 70 344 12.0 12.0 0.00 0.00 0.00 34 1001.7
20260508195701 70 312 7.0 12.0 0.00 0.00 0.00 34 1001.8
20260508195200 70 323 3.0 11.0 0.00 0.00 0.00 33 1001.9
20260508194658 70 358 0.0 14.0 0.00 0.00 0.00 33 1002.0
20260508194158 70 9 4.0 10.0 0.00 0.00 0.00 34 1002.1
20260508193658 70 324 5.0 15.0 0.00 0.00 0.00 33 1002.2
20260508193159 70 300 7.0 12.0 0.00 0.00 0.00 34 1002.4
20260508192159 69 275 3.0 6.0 0.00 0.00 0.00 34 1002.5
20260508191658 69 229 3.0 7.0 0.00 0.00 0.00 33 1002.5
20260508191158 70 291 7.0 11.0 0.00 0.00 0.00 33 1002.5
20260508190159 70 217 0.0 10.0 0.00 0.00 0.00 33 1002.6
20260508185703 69 292 1.0 10.0 0.00 0.00 0.00 33 1002.6
20260508185200 69 201 4.0 8.0 0.00 0.00 0.00 33 1002.6
20260508184700 70 288 10.0 10.0 0.00 0.00 0.00 33 1002.7
20260508183658 69 305 0.0 20.0 0.00 0.00 0.00 33 1002.8
20260508182658 69 307 8.0 14.0 0.00 0.00 0.00 33 1002.9
20260508181658 69 291 11.0 15.0 0.00 0.00 0.00 33 1003.1
20260508180159 68 279 5.0 7.0 0.00 0.00 0.00 33 1003.4
20260508175700 68 291 6.0 15.0 0.00 0.00 0.00 32 1003.6
20260508174659 68 300 7.0 10.0 0.00 0.00 0.00 33 1003.7
20260508174201 69 358 1.0 10.0 0.00 0.00 0.00 33 1003.9
20260508173702 69 262 1.0 12.0 0.00 0.00 0.00 33 1004.1
20260508173158 68 295 5.0 9.0 0.00 0.00 0.00 33 1004.1
20260508172702 68 298 0.0 8.0 0.00 0.00 0.00 32 1004.4
20260508172159 69 272 0.0 5.0 0.00 0.00 0.00 35 1004.5
20260508171658 68 277 9.0 13.0 0.00 0.00 0.00 34 1004.5
20260508171158 68 284 0.0 6.0 0.00 0.00 0.00 35 1004.6
20260508165703 68 302 0.0 15.0 0.00 0.00 0.00 35 1004.9
20260508165201 67 291 0.0 7.0 0.00 0.00 0.00 36 1004.9
20260508164659 67 225 0.0 6.0 0.00 0.00 0.00 36 1005.0
20260508164159 67 253 0.0 0.0 0.00 0.00 0.00 36 1005.1
20260508163659 66 253 5.0 10.0 0.00 0.00 0.00 36 1005.1
20260508163159 66 274 1.0 10.0 0.00 0.00 0.00 38 1005.2
20260508162702 66 333 5.0 9.0 0.00 0.00 0.00 37 1005.3
20260508162159 66 254 2.0 7.0 0.00 0.00 0.00 38 1005.3
20260508161658 65 330 4.0 10.0 0.00 0.00 0.00 40 1005.4
20260508161158 63 217 0.0 0.0 0.00 0.00 0.00 43 1005.5
20260508160658 63 209 0.0 5.0 0.00 0.00 0.00 44 1005.6
20260508160158 62 337 0.0 7.0 0.00 0.00 0.00 45 1005.6
20260508155200 60 272 0.0 4.0 0.00 0.00 0.00 49 1005.8
20260508154659 59 187 0.0 0.0 0.00 0.00 0.00 49 1005.8
20260508154159 58 206 0.0 4.0 0.00 0.00 0.00 48 1006.0
20260508153658 58 262 0.0 3.0 0.00 0.00 0.00 49 1006.1
20260508153158 57 265 5.0 9.0 0.00 0.00 0.00 49 1006.1
20260508152658 57 227 5.0 10.0 0.00 0.00 0.00 49 1006.2
20260508151659 57 201 0.0 5.0 0.00 0.00 0.00 49 1006.3
20260508151158 57 241 3.0 8.0 0.00 0.00 0.00 49 1006.3
20260508150659 57 219 4.0 11.0 0.00 0.00 0.00 48 1006.3
20260508150159 56 268 0.0 6.0 0.00 0.00 0.00 49 1006.4
20260508145702 56 267 0.0 6.0 0.00 0.00 0.00 49 1006.4
20260508145200 56 208 0.0 9.0 0.00 0.00 0.00 50 1006.4
20260508144700 55 233 2.0 10.0 0.00 0.00 0.00 50 1006.4
20260508144159 55 299 0.0 6.0 0.00 0.00 0.00 51 1006.5
20260508143659 55 217 0.0 8.0 0.00 0.00 0.00 52 1006.4
20260508143159 55 212 0.0 9.0 0.00 0.00 0.00 52 1006.6
20260508142702 54 220 0.0 8.0 0.00 0.00 0.00 53 1006.6
20260508142200 54 243 4.0 7.0 0.00 0.00 0.00 53 1006.7
20260508141658 54 285 0.0 4.0 0.00 0.00 0.00 53 1006.6
20260508140658 54 277 0.0 0.0 0.00 0.00 0.00 55 1006.7
20260508140158 53 136 0.0 4.0 0.00 0.00 0.00 54 1006.7
20260508135659 53 254 0.0 0.0 0.00 0.00 0.00 55 1006.8
20260508135159 53 254 3.0 5.0 0.00 0.00 0.00 54 1006.8
20260508134658 53 267 0.0 0.0 0.00 0.00 0.00 55 1006.8
20260508134158 52 267 0.0 0.0 0.00 0.00 0.00 55 1006.8
20260508133658 52 271 3.0 9.0 0.00 0.00 0.00 54 1006.8
20260508133159 52 250 0.0 7.0 0.00 0.00 0.00 54 1006.9